• In Hungary
  • List of Countries
  • For 7 days
  • Water Temperature
  • Satellite Maps
  • Weather Map
  • News
  • Weather Widgets
  • user-avatar
    Login

    Hourly Weather Strozewo

    Today, 21 July, Saturday

    Time Temperature Precipitation Wind Pressure Humidity
    00:00 +16°C° 0 mm 1 mps 751 mmHg 86%
    01:00 +16°C° 0 mm 1 mps 751 mmHg 87%
    02:00 +15°C° 0 mm 1 mps 751 mmHg 87%
    03:00 +15°C° 0 mm 1 mps 751 mmHg 87%
    04:00 +15°C° 0 mm 1 mps 751 mmHg 87%
    05:00 +16°C° 0 mm 1 mps 751 mmHg 81%
    06:00 +19°C° 0 mm 1 mps 751 mmHg 76%
    07:00 +20°C° 0 mm 1 mps 751 mmHg 70%
    08:00 +22°C° 0 mm 1 mps 751 mmHg 64%
    09:00 +23°C° 0 mm 1 mps 751 mmHg 59%
    10:00 +25°C° 0 mm 2 mps 751 mmHg 53%
    11:00 +25°C° 0 mm 2 mps 751 mmHg 49%
    12:00 +26°C° 0 mm 2 mps 751 mmHg 46%
    13:00 +27°C° 0 mm 2 mps 751 mmHg 42%
    14:00 +27°C° 0 mm 2 mps 750 mmHg 42%
    15:00 +27°C° 0 mm 2 mps 750 mmHg 43%
    16:00 +27°C° 0 mm 2 mps 750 mmHg 43%
    17:00 +26°C° 0 mm 2 mps 750 mmHg 49%
    18:00 +25°C° 0 mm 2 mps 750 mmHg 56%
    19:00 +23°C° 0 mm 2 mps 750 mmHg 63%
    20:00 +21°C° 0 mm 2 mps 750 mmHg 68%
    21:00 +19°C° 0 mm 2 mps 750 mmHg 74%
    22:00 +18°C° 0 mm 2 mps 750 mmHg 80%
    23:00 +17°C° 0 mm 2 mps 750 mmHg 83%

    Tomorrow, 22 July, Sunday

    Time Temperature Precipitation Wind Pressure Humidity
    00:00 +17°C° 0 mm 2 mps 750 mmHg 85%
    01:00 +16°C° 0 mm 2 mps 750 mmHg 88%
    02:00 +16°C° 0 mm 2 mps 750 mmHg 88%
    03:00 +15°C° 0 mm 1 mps 750 mmHg 89%
    04:00 +15°C° 0 mm 1 mps 750 mmHg 90%
    05:00 +18°C° 0 mm 1 mps 750 mmHg 85%
    06:00 +19°C° 0 mm 1 mps 751 mmHg 80%
    07:00 +20°C° 0 mm 1 mps 751 mmHg 74%
    08:00 +21°C° 0 mm 2 mps 751 mmHg 69%
    09:00 +24°C° 0 mm 2 mps 751 mmHg 63%
    10:00 +25°C° 0 mm 2 mps 751 mmHg 57%
    11:00 +26°C° 0 mm 2 mps 751 mmHg 53%
    12:00 +27°C° 0 mm 2 mps 751 mmHg 50%
    13:00 +28°C° 0 mm 2 mps 751 mmHg 46%
    14:00 +28°C° 0 mm 2 mps 751 mmHg 47%
    15:00 +28°C° 0 mm 2 mps 750 mmHg 48%
    16:00 +28°C° 0 mm 3 mps 750 mmHg 49%
    17:00 +27°C° 0 mm 2 mps 750 mmHg 55%
    18:00 +25°C° 0 mm 2 mps 750 mmHg 61%
    19:00 +24°C° 0 mm 2 mps 750 mmHg 66%
    20:00 +23°C° 0 mm 2 mps 750 mmHg 70%
    21:00 +21°C° 0 mm 2 mps 751 mmHg 74%
    22:00 +20°C° 0 mm 2 mps 751 mmHg 77%
    23:00 +19°C° 0 mm 2 mps 751 mmHg 80%

    Day after tomorrow, 23 July, Monday

    Time Temperature Precipitation Wind Pressure Humidity
    00:00 +19°C° 0 mm 2 mps 751 mmHg 82%
    01:00 +18°C° 0 mm 2 mps 751 mmHg 84%
    02:00 +18°C° 0 mm 2 mps 751 mmHg 85%
    03:00 +18°C° 0 mm 1 mps 751 mmHg 85%
    04:00 +18°C° 0 mm 1 mps 751 mmHg 85%
    05:00 +19°C° 0 mm 1 mps 751 mmHg 79%
    06:00 +21°C° 0 mm 1 mps 751 mmHg 74%
    07:00 +22°C° 0 mm 1 mps 751 mmHg 68%
    08:00 +24°C° 0 mm 1 mps 751 mmHg 62%
    09:00 +25°C° 0 mm 1 mps 752 mmHg 56%
    10:00 +27°C° 0 mm 1 mps 752 mmHg 50%
    11:00 +28°C° 0 mm 1 mps 751 mmHg 49%
    12:00 +28°C° 0 mm 1 mps 751 mmHg 47%
    13:00 +29°C° 0 mm 1 mps 751 mmHg 46%
    14:00 +28°C° 0.2 mm 2 mps 751 mmHg 51%
    15:00 +27°C° 0.2 mm 2 mps 751 mmHg 57%
    16:00 +26°C° 0.2 mm 3 mps 751 mmHg 62%
    17:00 +26°C° 0 mm 3 mps 751 mmHg 66%
    18:00 +25°C° 0 mm 2 mps 751 mmHg 70%
    19:00 +24°C° 0 mm 2 mps 751 mmHg 74%
    20:00 +23°C° 0 mm 2 mps 752 mmHg 78%
    21:00 +21°C° 0 mm 2 mps 752 mmHg 83%
    22:00 +19°C° 0 mm 2 mps 752 mmHg 87%
    23:00 +19°C° 0 mm 2 mps 752 mmHg 88%

    24 July, Tuesday

    Time Temperature Precipitation Wind Pressure Humidity
    00:00 +18°C° 0 mm 2 mps 752 mmHg 89%
    01:00 +17°C° 0 mm 2 mps 752 mmHg 90%
    02:00 +17°C° 0 mm 2 mps 752 mmHg 91%
    03:00 +17°C° 0 mm 2 mps 752 mmHg 92%
    04:00 +16°C° 0 mm 2 mps 752 mmHg 92%
    05:00 +18°C° 0 mm 2 mps 752 mmHg 88%
    06:00 +19°C° 0 mm 2 mps 752 mmHg 84%
    07:00 +20°C° 0 mm 3 mps 752 mmHg 79%
    08:00 +22°C° 0 mm 3 mps 752 mmHg 73%
    09:00 +24°C° 0 mm 3 mps 752 mmHg 66%
    10:00 +26°C° 0 mm 3 mps 752 mmHg 60%
    11:00 +27°C° 0.1 mm 3 mps 752 mmHg 57%
    12:00 +27°C° 0.1 mm 3 mps 752 mmHg 55%
    13:00 +28°C° 0.1 mm 3 mps 752 mmHg 53%
    14:00 +28°C° 0.3 mm 3 mps 752 mmHg 55%
    15:00 +28°C° 0.3 mm 3 mps 752 mmHg 57%
    16:00 +28°C° 0.3 mm 3 mps 752 mmHg 59%
    17:00 +27°C° 0.1 mm 3 mps 752 mmHg 64%
    18:00 +26°C° 0.1 mm 3 mps 752 mmHg 70%
    19:00 +25°C° 0.1 mm 3 mps 752 mmHg 75%
    20:00 +23°C° 0 mm 2 mps 752 mmHg 80%
    21:00 +21°C° 0 mm 2 mps 752 mmHg 84%
    22:00 +20°C° 0 mm 2 mps 752 mmHg 89%
    23:00 +19°C° 0 mm 2 mps 752 mmHg 91%

    25 July, Wednesday

    Time Temperature Precipitation Wind Pressure Humidity
    00:00 +19°C° 0 mm 2 mps 752 mmHg 93%
    01:00 +18°C° 0 mm 2 mps 753 mmHg 94%
    02:00 +18°C° 0 mm 2 mps 753 mmHg 95%
    03:00 +19°C° 0 mm 1 mps 753 mmHg 95%
    04:00 +18°C° 0 mm 1 mps 753 mmHg 95%
    05:00 +20°C° 0 mm 1 mps 753 mmHg 90%
    06:00 +21°C° 0 mm 1 mps 753 mmHg 85%
    07:00 +22°C° 0 mm 1 mps 753 mmHg 80%
    08:00 +24°C° 0.2 mm 1 mps 753 mmHg 74%
    09:00 +25°C° 0.2 mm 2 mps 753 mmHg 68%
    10:00 +27°C° 0.2 mm 2 mps 753 mmHg 62%
    11:00 +28°C° 0.2 mm 2 mps 753 mmHg 57%
    12:00 +28°C° 0.2 mm 2 mps 753 mmHg 53%
    13:00 +29°C° 0.2 mm 2 mps 752 mmHg 49%
    14:00 +29°C° 0 mm 2 mps 752 mmHg 48%
    15:00 +29°C° 0 mm 2 mps 752 mmHg 48%
    16:00 +29°C° 0 mm 2 mps 752 mmHg 48%
    17:00 +28°C° 0 mm 2 mps 752 mmHg 53%
    18:00 +27°C° 0 mm 2 mps 752 mmHg 58%
    19:00 +26°C° 0 mm 2 mps 752 mmHg 62%
    20:00 +25°C° 0 mm 2 mps 753 mmHg 67%
    21:00 +23°C° 0 mm 2 mps 753 mmHg 72%
    22:00 +21°C° 0 mm 2 mps 753 mmHg 76%
    23:00 +20°C° 0 mm 2 mps 753 mmHg 79%

    26 July, Thursday

    Time Temperature Precipitation Wind Pressure Humidity
    00:00 +19°C° 0 mm 2 mps 753 mmHg 82%
    01:00 +18°C° 0 mm 2 mps 753 mmHg 84%
    02:00 +18°C° 0 mm 2 mps 753 mmHg 86%
    03:00 +18°C° 0 mm 2 mps 753 mmHg 87%
    04:00 +17°C° 0 mm 2 mps 753 mmHg 88%
    05:00 +19°C° 0 mm 2 mps 754 mmHg 83%
    06:00 +20°C° 0 mm 2 mps 754 mmHg 79%
    07:00 +21°C° 0 mm 2 mps 754 mmHg 74%
    08:00 +24°C° 0 mm 2 mps 754 mmHg 67%
    09:00 +26°C° 0 mm 2 mps 754 mmHg 61%
    10:00 +27°C° 0 mm 2 mps 754 mmHg 54%
    11:00 +28°C° 0 mm 2 mps 754 mmHg 51%
    12:00 +29°C° 0 mm 2 mps 754 mmHg 49%
    13:00 +30°C° 0 mm 2 mps 754 mmHg 46%
    14:00 +30°C° 0 mm 2 mps 754 mmHg 46%
    15:00 +31°C° 0 mm 2 mps 754 mmHg 46%
    16:00 +31°C° 0 mm 2 mps 753 mmHg 46%
    17:00 +30°C° 0 mm 2 mps 754 mmHg 53%
    18:00 +28°C° 0 mm 2 mps 754 mmHg 59%
    19:00 +27°C° 0 mm 2 mps 754 mmHg 66%
    20:00 +26°C° 0 mm 2 mps 754 mmHg 71%
    21:00 +24°C° 0 mm 2 mps 754 mmHg 77%
    22:00 +23°C° 0 mm 2 mps 755 mmHg 82%
    23:00 +21°C° 0 mm 2 mps 755 mmHg 84%
    Show more